FW9813 Weather Reports


Display with metric or nautical units.
time (UTC)temp
F
wind
direction
speed
MPH
gust
MPH
rain 1hr
in
rain 24hr
in
rain mn
in
humidity
%
barometer
mb
20260904071549 73 0 0.0 0.0 0.00 0.00 0.00 88 1009.4
20260904070045 73 0 0.0 0.0 0.00 0.00 0.00 88 1009.5
20260904064555 73 0 0.0 0.0 0.00 0.00 0.00 87 1009.5
20260904063101 74 0 0.0 0.0 0.00 0.00 0.00 87 1009.5
20260904061549 74 0 0.0 2.0 0.00 0.00 0.00 86 1009.6
20260904060047 74 0 0.0 2.0 0.00 0.00 0.00 85 1009.6
20260904054549 75 0 1.0 4.0 0.00 0.00 0.00 85 1009.6
20260904053056 75 0 0.0 3.0 0.00 0.00 0.00 84 1009.5
20260904051600 75 0 0.0 4.0 0.00 0.00 0.00 83 1009.4
20260904050044 75 0 0.0 3.0 0.00 0.00 0.00 82 1009.4
20260904044549 76 0 2.0 3.0 0.00 0.00 0.00 81 1009.3
20260904043049 76 0 0.0 3.0 0.00 0.00 0.00 80 1009.3
20260904041550 77 0 0.0 3.0 0.00 0.00 0.00 78 1009.2
20260904040052 78 0 0.0 4.0 0.00 0.00 0.00 77 1009.2
20260904034546 79 0 0.0 2.0 0.00 0.00 0.00 77 1009.1
20260904033055 79 0 0.0 2.0 0.00 0.00 0.00 76 1009.1
20260904031557 79 0 0.0 1.0 0.00 0.00 0.00 75 1009.2
20260904030049 80 0 0.0 2.0 0.00 0.00 0.00 74 1009.0
20260904024546 80 0 0.0 2.0 0.00 0.00 0.00 74 1008.9
20260904023055 80 0 0.0 1.0 0.00 0.00 0.00 73 1008.9
20260904021548 81 0 0.0 2.0 0.00 0.00 0.00 72 1008.7
20260904020049 81 0 0.0 2.0 0.00 0.00 0.00 71 1008.7
20260904014601 81 48 0.0 2.0 0.00 0.00 0.00 71 1008.6
20260904013047 81 0 0.0 1.0 0.00 0.00 0.00 70 1008.6
20260904011549 82 0 0.0 1.0 0.00 0.00 0.00 69 1008.5
20260904010052 82 0 0.0 2.0 0.00 0.00 0.00 68 1008.3
20260904004554 83 25 0.0 2.0 0.00 0.00 0.00 67 1008.3
20260904003048 84 0 0.0 3.0 0.00 0.00 0.00 65 1008.3
20260904001547 84 0 0.0 2.0 0.00 0.00 0.00 65 1008.4
20260904000054 84 0 0.0 2.0 0.00 0.00 0.00 64 1008.4
20260903234549 85 133 0.0 3.0 0.00 0.00 0.00 63 1008.5
20260903233049 85 0 0.0 2.0 0.00 0.00 0.00 63 1008.3
20260903231550 85 76 0.0 3.0 0.00 0.00 0.00 62 1008.1
20260903230047 85 36 0.0 4.0 0.00 0.00 0.00 61 1007.9
20260903224555 85 347 1.0 4.0 0.00 0.00 0.00 61 1007.7
20260903223052 85 29 1.0 6.0 0.00 0.00 0.00 61 1007.9
20260903221547 85 161 1.0 5.0 0.00 0.00 0.00 62 1008.0
20260903220052 85 124 1.0 7.0 0.00 0.00 0.00 62 1008.1
20260903214555 85 29 0.0 2.0 0.00 0.00 0.00 66 1008.2
20260903213052 85 31 1.0 3.0 0.00 0.00 0.00 66 1008.2
20260903211547 85 5 1.0 4.0 0.00 0.00 0.00 65 1008.0
20260903210104 85 36 1.0 4.0 0.00 0.00 0.00 63 1008.1
20260903204616 85 53 1.0 4.0 0.00 0.00 0.00 64 1008.0
20260903203051 85 5 1.0 7.0 0.00 0.00 0.00 62 1008.3
20260903201547 86 15 1.0 4.0 0.00 0.00 0.00 61 1008.3
20260903200053 87 0 1.0 4.0 0.00 0.00 0.00 59 1008.5
20260903194542 87 63 1.0 6.0 0.00 0.00 0.00 58 1008.8
20260903193053 86 47 1.0 4.0 0.00 0.00 0.00 59 1008.9
20260903191545 86 90 1.0 4.0 0.00 0.00 0.00 59 1009.0
20260903190047 86 37 1.0 5.0 0.00 0.00 0.00 58 1008.9
20260903184551 87 32 1.0 4.0 0.00 0.00 0.00 56 1009.4
20260903183048 87 57 2.0 9.0 0.00 0.00 0.00 56 1009.4
20260903181546 87 61 2.0 7.0 0.00 0.00 0.00 56 1009.3
20260903180100 86 52 2.0 8.0 0.00 0.00 0.00 57 1009.6
20260903174552 86 14 2.0 9.0 0.00 0.00 0.00 55 1009.6
20260903173049 87 53 2.0 5.0 0.00 0.00 0.00 56 1009.8
20260903171552 86 57 1.0 4.0 0.00 0.00 0.00 58 1009.8
20260903170048 85 49 1.0 4.0 0.00 0.00 0.00 58 1010.0
20260903164556 85 5 0.0 4.0 0.00 0.00 0.00 60 1010.1
20260903163049 84 125 1.0 5.0 0.00 0.00 0.00 62 1010.2
20260903161548 83 61 0.0 3.0 0.00 0.00 0.00 65 1010.3
20260903160101 82 339 0.0 4.0 0.00 0.00 0.00 68 1010.4
20260903154552 81 0 0.0 5.0 0.00 0.00 0.00 70 1010.2
20260903153049 80 323 2.0 3.0 0.00 0.00 0.00 71 1010.4
20260903151545 79 360 0.0 4.0 0.00 0.00 0.00 74 1010.4
20260903150110 78 17 1.0 3.0 0.00 0.00 0.00 75 1010.3
20260903144556 77 9 1.0 3.0 0.00 0.00 0.00 77 1010.3
20260903143048 75 44 1.0 4.0 0.00 0.00 0.00 79 1010.4
20260903141547 74 338 1.0 3.0 0.00 0.00 0.00 81 1010.4
20260903140111 73 0 0.0 5.0 0.00 0.00 0.00 82 1010.7
20260903134554 72 317 1.0 3.0 0.00 0.00 0.00 83 1010.9
20260903133054 71 352 0.0 3.0 0.00 0.00 0.00 84 1010.9
20260903131548 70 342 1.0 4.0 0.00 0.00 0.00 84 1010.9
20260903130058 70 11 2.0 5.0 0.00 0.00 0.00 85 1010.7
20260903124557 70 352 2.0 4.0 0.00 0.00 0.00 85 1010.9
20260903123044 70 16 0.0 4.0 0.00 0.00 0.00 85 1010.9
20260903121547 70 327 1.0 5.0 0.00 0.00 0.00 85 1010.9
20260903120104 69 341 1.0 4.0 0.00 0.00 0.00 85 1010.7
20260903114548 69 18 1.0 3.0 0.00 0.00 0.00 86 1010.8
20260903113048 69 0 0.0 4.0 0.00 0.00 0.00 86 1010.8
20260903111546 68 330 1.0 3.0 0.00 0.00 0.00 86 1010.7
20260903110048 68 0 0.0 2.0 0.00 0.00 0.00 85 1010.9
20260903104550 69 0 0.0 3.0 0.00 0.00 0.00 85 1010.8
20260903103048 69 0 0.0 3.0 0.00 0.00 0.00 84 1010.9
20260903101546 69 0 0.0 4.0 0.00 0.00 0.00 84 1010.7
20260903100051 69 0 0.0 3.0 0.00 0.00 0.00 84 1010.6
20260903094554 69 348 1.0 3.0 0.00 0.00 0.00 83 1010.3
20260903093116 69 0 0.0 2.0 0.00 0.00 0.00 82 1010.3
20260903091554 69 0 0.0 2.0 0.00 0.00 0.00 81 1010.5
20260903090049 70 0 0.0 3.0 0.00 0.00 0.00 81 1010.3
20260903084547 69 345 0.0 3.0 0.00 0.00 0.00 81 1010.4
20260903083100 69 0 0.0 2.0 0.00 0.00 0.00 80 1010.7
20260903081557 70 0 0.0 2.0 0.00 0.00 0.00 80 1010.5
20260903080053 70 0 0.0 2.0 0.00 0.00 0.00 79 1010.9
20260903074618 70 0 0.0 2.0 0.00 0.00 0.00 78 1010.8
20260903073059 71 0 0.0 2.0 0.00 0.00 0.00 77 1010.9